#timestamp,LO_Frequency,Hit 
1498993215.2,286046948.7,N
1498993235.0,286046946.9,N
1498993235.9,286046946.9,N
1498993255.8,286046947.8,N
1498993275.6,286046949.6,N
1498993295.4,286046948.3,N
1498993315.3,286046948.0,N
1498993335.1,286046945.5,N
1498993355.8,286046946.1,N
1498993375.7,286046946.6,N
1498993395.5,286046946.4,N
1498993415.3,286046946.1,N
1498993435.2,286046945.7,N
1498993455.9,286046946.3,N
1498993475.7,286046944.5,N
1498993495.6,286046942.4,N
1498993515.4,286046943.5,N
1498993535.2,286046941.2,N
1498993555.1,286046941.5,N
1498993556.0,286046941.5,N
1498993575.8,286046942.0,N
1498993595.6,286046940.1,N
1498993615.4,286046939.2,N
1498993635.3,286046937.7,N
1498993655.1,286046938.6,N
1498993675.8,286046938.0,N
1498993695.7,286046937.6,N
1498993715.5,286046938.1,N
1498993735.3,286046938.0,N
1498993755.2,286046940.3,N
1498993775.9,286046940.0,N
1498993795.7,286046940.3,N
1498993815.6,286046938.2,N
1498993835.4,286046937.9,N
1498993855.2,286046938.2,N
1498993875.1,286046937.9,N
1498993876.0,286046937.9,N
1498993895.8,286046935.7,N
1498993915.6,286046936.9,N
1498993935.5,286046935.1,N
1498993955.3,286046932.7,Y
1498993975.1,286046951.5,N
1498993995.9,286046951.2,N
1498994015.7,286046948.7,N
1498994035.5,286046951.6,N
1498994055.4,286046950.7,N
1498994075.2,286046948.9,N
1498994095.0,286046949.0,N
1498994095.9,286046949.0,N
1498994115.8,286046949.8,N
1498994135.6,286046947.0,N
1498994155.4,286046949.8,N
1498994175.2,286046947.4,N
1498994195.1,286046945.9,N
1498994196.0,286046945.9,N
1498994215.8,286046947.8,N
1498994235.6,286046945.8,N
1498994255.5,286046946.2,N
1498994275.3,286046944.2,N
1498994295.1,286046944.6,N
1498994315.9,286046942.2,N
1498994335.7,286046944.3,N
1498994355.5,286046945.2,N
1498994375.4,286046944.2,N
1498994395.2,286046944.3,N
1498994415.0,286046944.8,N
1498994415.9,286046944.8,N
1498994435.8,286046942.9,N
1498994455.6,286046943.1,N
1498994475.4,286046941.0,N
1498994495.2,286046938.9,N
1498994515.1,286046939.4,N
1498994516.0,286046939.4,N
1498994535.8,286046940.0,N
1498994555.6,286046939.0,N
1498994575.5,286046939.0,N
1498994595.3,286046940.0,N
1498994615.1,286046938.5,N
1498994635.9,286046937.9,N
1498994655.7,286046938.1,N
1498994675.6,286046937.6,N
1498994695.4,286046938.5,N
1498994715.2,286046938.3,N
1498994735.1,286046936.6,N
1498994736.0,286046936.6,N
1498994755.8,286046936.7,N
1498994775.6,286046935.7,N
1498994795.5,286046938.4,N
1498994815.3,286046936.9,N
1498994835.1,286046938.8,N
1498994855.9,286046938.4,N
1498994875.7,286046938.4,N
1498994895.5,286046936.9,N
1498994915.4,286046937.2,N
1498994935.2,286046937.2,N
1498994955.0,286046932.6,N
1498994955.9,286046932.6,N
1498994975.8,286046933.7,N
1498994995.6,286046933.6,N
1498995015.4,286046933.6,N
1498995035.2,286046931.4,N
1498995055.1,286046931.5,N
1498995056.0,286046931.5,N
1498995075.8,286046931.7,N
1498995095.6,286046932.1,N
1498995115.5,286046931.0,N
1498995135.3,286046931.5,N
1498995155.1,286046930.9,N
1498995175.9,286046931.4,N
1498995195.7,286046931.1,N
1498995215.5,286046933.8,N
1498995235.4,286046933.0,N
1498995255.2,286046931.5,N
1498995275.0,286046929.3,N
1498995275.9,286046929.3,N
1498995295.8,286046932.4,N
1498995315.6,286046929.6,N
1498995335.4,286046932.0,N
1498995355.3,286046928.0,Y
1498995375.1,286046951.4,N
1498995376.0,286046951.4,N
1498995395.8,286046950.9,N
1498995415.7,286046951.0,N
1498995435.5,286046950.8,N
1498995455.3,286046951.3,N
1498995475.2,286046948.9,N
1498995495.9,286046949.7,N
1498995515.7,286046949.5,N
1498995535.5,286046949.8,N
1498995555.4,286046949.1,N
1498995575.2,286046951.5,N
1498995595.0,286046949.7,N
1498995595.9,286046949.7,N
1498995615.8,286046949.8,N
1498995635.6,286046947.0,N
1498995655.4,286046948.0,N
1498995675.3,286046945.8,N
1498995695.1,286046948.2,N
1498995715.8,286046947.6,N
1498995735.7,286046945.8,N
1498995755.5,286046946.4,N
1498995775.3,286046944.4,N
1498995795.2,286046942.5,N
1498995815.9,286046942.8,N
1498995835.7,286046942.8,N
1498995855.6,286046943.0,N
1498995875.4,286046942.7,N
1498995895.2,286046940.9,N
1498995915.0,286046941.7,N
1498995916.0,286046941.7,N
1498995935.8,286046941.2,N
1498995955.6,286046938.9,N
1498995975.4,286046941.3,N
1498995995.3,286046939.3,N
1498996015.1,286046939.8,N
1498996035.8,286046937.6,N
1498996055.7,286046938.0,N
1498996075.5,286046936.4,N
1498996095.3,286046934.6,N
1498996115.2,286046937.1,N
1498996135.9,286046935.1,N
1498996155.7,286046933.3,N
1498996175.6,286046933.8,N
1498996195.4,286046931.1,N
1498996215.2,286046933.8,N
1498996235.1,286046933.5,N
1498996236.0,286046933.5,N
1498996255.8,286046934.0,N
1498996275.6,286046933.9,N
1498996295.4,286046929.4,N
1498996315.3,286046932.2,N
1498996335.1,286046932.2,N
1498996355.8,286046930.7,N
1498996375.7,286046928.9,N
1498996395.5,286046926.5,Y
1498996415.3,286046953.1,N
1498996435.2,286046952.4,N
1498996455.0,286046954.5,N
1498996455.9,286046954.5,N
1498996475.7,286046951.9,N
1498996495.6,286046952.9,N
1498996515.4,286046952.6,N
1498996535.2,286046950.1,N
1498996555.1,286046950.9,N
1498996556.0,286046950.9,N
1498996575.8,286046951.4,N
1498996595.6,286046950.3,N
1498996615.5,286046951.3,N
1498996635.3,286046951.2,N
1498996655.1,286046948.8,N
1498996675.9,286046949.6,N
1498996695.7,286046947.1,N
1498996715.5,286046949.9,N
1498996735.4,286046946.9,N
1498996755.2,286046947.9,N
1498996775.0,286046947.5,N
1498996775.9,286046947.5,N
1498996795.8,286046948.2,N
